Weather History for KMOT - March, 2013

Change the Weather History Date:

Friday, March 15, 2013

  Actual Average Record
Temperature  
Mean Temperature 7 °F 28 °F  
Max Temperature 21 °F 36 °F 64 °F (2012)
Min Temperature -7 °F 19 °F -27 °F (1906)
Degree Days  
Heating Degree Days 58 37  
Month to date heating degree days 716 607  
Since 1 July heating degree days 7446 7183  
Cooling Degree Days 0 0  
Month to date cooling degree days 0 0  
Year to date cooling degree days 0 0  
Moisture  
Dew Point 6 °F    
Average Humidity 86    
Maximum Humidity 91    
Minimum Humidity 80    
Precipitation  
Precipitation 0.13 in 0.03 in 0.20 in (1987)
Month to date precipitation 0.39 0.33  
Year to date precipitation 0.93 1.24  
Sea Level Pressure  
Sea Level Pressure 30.10 in    
Wind  
Wind Speed 12 mph (NE)    
Max Wind Speed 22 mph    
Max Gust Speed 26 mph    
Visibility 3 miles    
Events Fog , Snow    
T = Trace of Precipitation, MM = Missing Value Source: NWS Daily Summary

Daily Weather History Graph

Daily Weather History Graph

Search for Another Location

Airport or City:

Trip Planner

Search our weather history database for the weather conditions in past years. The results will help you decide how hot, cold, wet, or windy it might be!

Date:

Astronomy

Mar. 15, 2013 Rise Set
Actual Time 7:57 AM CDT 7:50 PM CDT
Civil Twilight 7:26 AM CDT 8:22 PM CDT
Nautical Twilight 6:50 AM CDT 8:58 PM CDT
Astronomical Twilight 6:13 AM CDT 9:35 PM CDT
Moon 9:28 AM CDT (3/15) No Moon Set
Length of Visible Light 12h 55m
Length of Day
11h 53m
Waxing Crescent, 15% of the Moon is Illuminated
Mar 15
Waxing Crescent
Mar 19
First Quarter
Mar 27
Full
Apr 2
Last Quarter
Apr 10
New

Hourly Weather History & Observations

Time (CDT) Temp. Windchill Dew Point Humidity Pressure Visibility Wind Dir Wind Speed Gust Speed Precip Events Conditions
12:21 AM 21.2 °F 7.8 °F 17.6 °F 86% 30.11 in 7.0 mi ENE 15.0 mph - 0.00 in   Overcast
12:30 AM 21.2 °F 8.9 °F 17.6 °F 86% 30.12 in 2.5 mi ENE 12.7 mph - 0.00 in Snow Light Snow
12:39 AM 21.2 °F 10.1 °F 17.6 °F 86% 30.11 in 1.2 mi ENE 10.4 mph - 0.00 in Snow Light Snow
12:54 AM 21.0 °F 10.6 °F 18.0 °F 88% 30.18 in 1.8 mi East 9.2 mph - 0.00 in Snow Light Snow
1:42 AM 19.4 °F 7.2 °F 17.6 °F 93% 30.09 in 1.5 mi East 11.5 mph - 0.00 in Snow Light Snow
1:54 AM 19.9 °F 8.6 °F 17.1 °F 89% 30.18 in 1.8 mi East 10.4 mph - 0.00 in Snow Light Snow
2:02 AM 19.4 °F 7.9 °F 17.6 °F 93% 30.09 in 2.5 mi East 10.4 mph - N/A Snow Light Snow
2:15 AM 19.4 °F 7.9 °F 17.6 °F 93% 30.09 in 2.0 mi East 10.4 mph - 0.01 in Snow Light Snow
2:22 AM 19.4 °F 7.2 °F 17.6 °F 93% 30.10 in 1.5 mi East 11.5 mph - 0.01 in Snow Light Snow
2:51 AM 19.4 °F 7.2 °F 17.6 °F 93% 30.10 in 0.8 mi East 11.5 mph - 0.02 in Snow Light Snow
2:54 AM 19.0 °F 6.8 °F 17.1 °F 92% 30.19 in 0.8 mi East 11.5 mph - 0.02 in Snow Light Snow
3:03 AM 19.4 °F 8.6 °F 17.6 °F 93% 30.10 in 0.8 mi ENE 9.2 mph - 0.00 in Snow Light Snow
3:29 AM 19.4 °F 9.5 °F 17.6 °F 93% 30.10 in 1.0 mi ENE 8.1 mph - 0.02 in Snow Light Snow
3:54 AM 19.9 °F 9.3 °F 17.1 °F 89% 30.18 in 1.0 mi NE 9.2 mph - 0.02 in Snow Light Snow
4:52 AM 15.8 °F -1.5 °F 12.2 °F 86% 30.09 in 2.0 mi ENE 20.7 mph 26.5 mph 0.01 in Snow Light Snow
4:53 AM 15.1 °F -2.5 °F 12.0 °F 88% 30.17 in 2.5 mi ENE 20.7 mph - 0.01 in Snow Light Snow
5:01 AM 15.8 °F -1.5 °F 10.4 °F 79% 30.07 in 6.0 mi ENE 20.7 mph - 0.00 in   Overcast
5:54 AM 14.0 °F -0.8 °F 10.0 °F 84% 30.17 in 10.0 mi ENE 13.8 mph - 0.00 in   Overcast
6:08 AM 12.2 °F -4.3 °F 8.6 °F 85% 30.07 in 8.0 mi NE 16.1 mph - 0.00 in Snow Light Snow
6:54 AM 12.0 °F -3.4 °F 8.1 °F 84% 30.17 in 10.0 mi East 13.8 mph - 0.00 in   Overcast
7:42 AM 10.4 °F -7.2 °F 8.6 °F 92% 30.05 in 1.8 mi ENE 17.3 mph - 0.00 in Snow Light Snow
7:54 AM 10.9 °F -4.7 °F 7.0 °F 84% 30.15 in 1.8 mi ENE 13.8 mph - 0.00 in Snow Light Snow
8:02 AM 10.4 °F -4.8 °F 8.6 °F 92% 30.05 in 2.0 mi ENE 12.7 mph - 0.00 in Snow Light Snow
8:08 AM 10.4 °F -4.1 °F 8.6 °F 92% 30.06 in 0.5 mi ENE 11.5 mph - 0.00 in Fog , Snow Snow
8:37 AM 10.4 °F -4.1 °F 6.8 °F 85% 30.04 in 0.5 mi ENE 11.5 mph - 0.01 in Fog , Snow Snow
8:54 AM 10.0 °F -7.1 °F 7.0 °F 87% 30.13 in 0.5 mi ENE 16.1 mph - 0.02 in Fog , Snow Snow
9:01 AM 10.4 °F -6.0 °F 6.8 °F 85% 30.03 in 0.2 mi ENE 15.0 mph - 0.00 in Fog , Snow Snow
9:31 AM 8.6 °F -8.9 °F 6.8 °F 92% 30.01 in 0.5 mi East 16.1 mph - 0.00 in Fog , Snow Snow
9:40 AM 8.6 °F -7.7 °F 6.8 °F 92% 30.01 in 0.5 mi ENE 13.8 mph - 0.00 in Fog , Snow Light Snow
9:54 AM 9.0 °F -9.0 °F 6.1 °F 88% 30.11 in 0.8 mi ENE 17.3 mph - 0.00 in Snow Light Snow
10:09 AM 8.6 °F -10.0 °F 5.0 °F 85% 29.99 in 0.2 mi ENE 18.4 mph - 0.01 in Fog , Snow Heavy Snow
10:54 AM 8.1 °F -7.0 °F 3.9 °F 83% 30.14 in 0.2 mi ENE 11.5 mph - 0.03 in Fog , Snow Snow
11:40 AM 8.6 °F -6.3 °F 3.2 °F 79% 30.03 in 0.5 mi ENE 11.5 mph - 0.02 in Fog , Snow Light Snow
11:54 AM 8.1 °F -5.3 °F 3.9 °F 83% 30.16 in 1.0 mi ENE 9.2 mph - 0.02 in Snow Light Snow
12:03 PM 8.6 °F -3.7 °F 3.2 °F 79% 30.06 in 1.2 mi NE 8.1 mph - 0.00 in Snow Light Snow
12:10 PM 8.6 °F -3.7 °F 3.2 °F 79% 30.07 in 1.5 mi NE 8.1 mph - 0.00 in Snow Light Snow
12:21 PM 8.6 °F -3.7 °F 3.2 °F 79% 30.06 in 1.2 mi NE 8.1 mph - 0.00 in Snow Light Snow
12:37 PM 6.8 °F -9.3 °F 3.2 °F 85% 30.03 in 2.5 mi ENE 12.7 mph - 0.00 in Snow Light Snow
12:49 PM 8.6 °F -7.7 °F 3.2 °F 79% 30.02 in 3.0 mi East 13.8 mph - 0.00 in Snow Light Snow
12:54 PM 8.1 °F -8.4 °F 3.0 °F 80% 30.12 in 2.0 mi East 13.8 mph - 0.00 in Snow Light Snow
1:02 PM 8.6 °F -7.7 °F 3.2 °F 79% 30.01 in 1.8 mi ENE 13.8 mph - 0.00 in Snow Light Snow
1:09 PM 8.6 °F -7.0 °F 3.2 °F 79% 30.02 in 2.0 mi ENE 12.7 mph - 0.00 in Snow Light Snow
1:22 PM 8.6 °F -6.3 °F 3.2 °F 79% 30.04 in 3.0 mi NE 11.5 mph - 0.00 in Snow Light Snow
1:49 PM 8.6 °F -5.5 °F 3.2 °F 79% 30.03 in 2.5 mi NE 10.4 mph - 0.00 in Snow Light Snow
1:54 PM 8.1 °F -7.0 °F 3.0 °F 80% 30.14 in 3.0 mi NE 11.5 mph - 0.00 in Snow Light Snow
2:27 PM 6.8 °F -8.6 °F 1.4 °F 79% 30.04 in 2.0 mi NNE 11.5 mph - 0.00 in Snow Light Snow
2:54 PM 7.0 °F -9.1 °F 1.9 °F 80% 30.14 in 1.5 mi NNE 12.7 mph - 0.00 in Snow Light Snow
3:13 PM 6.8 °F -10.0 °F 1.4 °F 79% 30.02 in 2.0 mi NNE 13.8 mph - 0.00 in Snow Light Snow
3:24 PM 6.8 °F -10.0 °F 1.4 °F 79% 30.02 in 1.8 mi NNE 13.8 mph - 0.00 in Snow Light Snow
3:38 PM 6.8 °F -9.3 °F 1.4 °F 79% 30.02 in 2.5 mi NNE 12.7 mph - 0.00 in Snow Light Snow
3:54 PM 7.0 °F -9.8 °F 1.9 °F 80% 30.12 in 2.0 mi NE 13.8 mph - 0.00 in Snow Light Snow
4:01 PM 6.8 °F -8.6 °F 1.4 °F 79% 30.02 in 1.5 mi NE 11.5 mph - N/A Snow Light Snow
4:34 PM 6.8 °F -8.6 °F 3.2 °F 85% 30.02 in 0.8 mi NNE 11.5 mph - 0.01 in Snow Light Snow
4:41 PM 8.6 °F -4.7 °F 3.2 °F 79% 30.03 in 0.5 mi NNE 9.2 mph - 0.01 in Snow Snow
4:54 PM 8.1 °F -6.2 °F 3.0 °F 80% 30.15 in 0.5 mi NE 10.4 mph - 0.01 in Snow Snow
5:06 PM 8.6 °F -6.3 °F 3.2 °F 79% 30.04 in 1.0 mi NNE 11.5 mph - 0.00 in Snow Light Snow
5:16 PM 8.6 °F -6.3 °F 3.2 °F 79% 30.05 in 1.0 mi NNE 11.5 mph - 0.00 in Snow Light Snow
5:40 PM 8.6 °F -4.7 °F 3.2 °F 79% 30.05 in 1.0 mi NNE 9.2 mph - 0.00 in Snow Light Snow
5:54 PM 8.1 °F -4.3 °F 3.9 °F 83% 30.16 in 1.0 mi NNE 8.1 mph - 0.00 in Snow Light Snow
6:30 PM 8.6 °F -4.7 °F 3.2 °F 79% 30.06 in 0.8 mi North 9.2 mph - 0.00 in Snow Light Snow
6:43 PM 6.8 °F -7.8 °F 3.2 °F 85% 30.06 in 1.0 mi North 10.4 mph - 0.00 in Snow Light Snow
6:52 PM 6.8 °F -7.8 °F 3.2 °F 85% 30.07 in 1.0 mi North 10.4 mph - 0.00 in Snow Light Snow
6:54 PM 7.0 °F -7.5 °F 3.0 °F 84% 30.19 in 1.0 mi North 10.4 mph - 0.00 in Snow Light Snow
7:34 PM 6.8 °F -7.8 °F 1.4 °F 79% 30.09 in 2.0 mi NNW 10.4 mph - 0.00 in Snow Light Snow
7:54 PM 5.0 °F -10.0 °F 1.0 °F 84% 30.23 in 4.0 mi NNW 10.4 mph - 0.00 in Snow Light Snow
8:54 PM 1.0 °F -14.9 °F -2.9 °F 83% 30.25 in 5.0 mi NNW 10.4 mph - 0.00 in Snow Light Snow
9:15 PM -2.2 °F -18.0 °F -5.8 °F 85% 30.13 in 9.0 mi NNW 9.2 mph - 0.00 in Snow Light Snow
9:22 PM -2.2 °F -18.9 °F -5.8 °F 85% 30.13 in 9.0 mi NNW 10.4 mph - 0.00 in   Scattered Clouds
9:52 PM -4.0 °F -19.0 °F -7.6 °F 85% 30.14 in 10.0 mi NW 8.1 mph - 0.00 in   Mostly Cloudy
9:54 PM -4.0 °F -19.0 °F -8.0 °F 83% 30.28 in 10.0 mi NW 8.1 mph - 0.00 in   Mostly Cloudy
10:14 PM -4.0 °F -20.2 °F -7.6 °F 85% 30.16 in 10.0 mi NW 9.2 mph - N/A   Scattered Clouds
10:54 PM -4.0 °F -16.3 °F -8.0 °F 83% 30.30 in 10.0 mi West 5.8 mph - N/A   Clear
11:54 PM -6.0 °F -21.5 °F -9.9 °F 83% 30.31 in 10.0 mi WNW 8.1 mph - N/A   Clear